N0ERG Weather Reports


time (UTC)temp
C
wind
direction
speed
KPH
gust
KPH
rain 1hr
cm
rain 24hr
cm
rain mn
cm
humidity
%
barometer
mb
20220629025004 26 193 1.6 9.7 0.00 0.00 0.00 26 1004.6
20220629024004 26 175 1.6 11.3 0.00 0.00 0.00 24 1004.5
20220629023005 27 170 3.2 16.1 0.00 0.00 0.00 24 1004.5
20220629022005 27 189 3.2 14.5 0.00 0.00 0.00 23 1004.5
20220629021004 28 155 3.2 16.1 0.00 0.00 0.00 23 1004.5
20220629020005 29 174 4.8 20.9 0.00 0.00 0.00 22 1004.4
20220629015005 30 203 1.6 8.0 0.00 0.00 0.00 21 1004.4
20220629014004 30 187 1.6 9.7 0.00 0.00 0.00 20 1004.2
20220629013004 31 262 3.2 11.3 0.00 0.00 0.00 18 1004.1
20220629012006 31 275 3.2 16.1 0.00 0.00 0.00 18 1004.1
20220629011005 32 294 0.0 3.2 0.00 0.00 0.00 19 1004.1
20220629010004 32 294 0.0 3.2 0.00 0.00 0.00 18 1004.2
20220629005005 32 333 1.6 3.2 0.00 0.00 0.00 17 1004.2
20220629004004 31 347 0.0 3.2 0.00 0.00 0.00 20 1004.4
20220629003005 31 347 1.6 4.8 0.00 0.00 0.00 17 1004.5
20220629002004 32 123 1.6 3.2 0.00 0.00 0.00 19 1004.5
20220629001004 33 123 1.6 11.3 0.00 0.00 0.00 14 1004.5
20220629000005 35 69 3.2 11.3 0.00 0.00 0.00 16 1004.5
20220628235006 35 355 0.0 4.8 0.00 0.00 0.00 16 1004.4
20220628234006 35 58 3.2 9.7 0.00 0.00 0.00 16 1004.6
20220628233004 33 103 3.2 9.7 0.00 0.00 0.00 17 1004.7
20220628232004 32 112 1.6 4.8 0.00 0.00 0.00 20 1004.8
20220628231004 33 44 8.0 19.3 0.00 0.00 0.00 18 1004.8
20220628230004 35 75 3.2 4.8 0.00 0.00 0.00 19 1005.0
20220628225004 35 242 1.6 4.8 0.00 0.00 0.00 15 1005.1
20220628224004 36 51 3.2 4.8 0.00 0.00 0.00 16 1005.2
20220628223004 35 121 1.6 4.8 0.00 0.00 0.00 14 1005.3
20220628222004 35 250 3.2 8.0 0.00 0.00 0.00 13 1005.5
20220628221005 35 260 1.6 11.3 0.00 0.00 0.00 12 1005.6
20220628220004 35 135 3.2 11.3 0.00 0.00 0.00 14 1005.6
20220628215006 35 251 3.2 9.7 0.00 0.00 0.00 14 1005.8
20220628214004 35 324 3.2 4.8 0.00 0.00 0.00 14 1005.8
20220628213004 35 61 1.6 8.0 0.00 0.00 0.00 18 1005.9
20220628212004 35 85 6.4 11.3 0.00 0.00 0.00 17 1006.1
20220628211004 35 42 3.2 8.0 0.00 0.00 0.00 15 1006.2
20220628210004 35 350 1.6 12.9 0.00 0.00 0.00 14 1006.4
20220628205004 34 351 3.2 9.7 0.00 0.00 0.00 15 1006.5
20220628204004 34 158 3.2 9.7 0.00 0.00 0.00 15 1006.6
20220628203004 35 304 3.2 12.9 0.00 0.00 0.00 15 1006.8
20220628202004 34 44 3.2 9.7 0.00 0.00 0.00 14 1006.8
20220628201004 34 46 3.2 14.5 0.00 0.00 0.00 18 1006.8
20220628200004 34 81 3.2 12.9 0.00 0.00 0.00 16 1006.9
20220628195004 34 258 4.8 11.3 0.00 0.00 0.00 14 1007.1
20220628194004 34 78 3.2 14.5 0.00 0.00 0.00 17 1007.3
20220628193004 33 142 3.2 11.3 0.00 0.00 0.00 19 1007.4
20220628192004 33 16 1.6 16.1 0.00 0.00 0.00 19 1007.6
20220628191004 33 279 4.8 12.9 0.00 0.00 0.00 16 1007.7
20220628190004 33 320 1.6 9.7 0.00 0.00 0.00 16 1007.9
20220628185004 33 50 4.8 11.3 0.00 0.00 0.00 18 1008.0
20220628184004 33 40 3.2 11.3 0.00 0.00 0.00 18 1008.0
20220628183004 33 56 4.8 16.1 0.00 0.00 0.00 16 1008.1
20220628182004 33 59 3.2 11.3 0.00 0.00 0.00 19 1008.1
20220628181004 33 56 3.2 9.7 0.00 0.00 0.00 20 1008.3
20220628180004 32 47 3.2 12.9 0.00 0.00 0.00 17 1008.3
20220628175005 32 65 4.8 11.3 0.00 0.00 0.00 21 1008.3
20220628174004 32 341 1.6 8.0 0.00 0.00 0.00 18 1008.3
20220628173004 32 75 3.2 11.3 0.00 0.00 0.00 20 1008.3
20220628172004 32 89 4.8 11.3 0.00 0.00 0.00 27 1008.5
20220628171005 31 79 3.2 8.0 0.00 0.00 0.00 23 1008.6
20220628170005 31 74 4.8 12.9 0.00 0.00 0.00 22 1008.8
20220628165006 31 72 1.6 9.7 0.00 0.00 0.00 25 1008.8
20220628164005 31 146 1.6 9.7 0.00 0.00 0.00 24 1008.8
20220628163005 30 190 1.6 4.8 0.00 0.00 0.00 27 1008.9
20220628162006 30 25 1.6 4.8 0.00 0.00 0.00 26 1009.0
20220628161005 28 57 1.6 4.8 0.00 0.00 0.00 29 1009.2
20220628160005 28 113 0.0 4.8 0.00 0.00 0.00 29 1009.4
20220628155005 27 148 3.2 8.0 0.00 0.00 0.00 27 1009.5
20220628154005 26 288 1.6 4.8 0.00 0.00 0.00 31 1009.6
20220628153006 25 186 1.6 9.7 0.00 0.00 0.00 33 1009.8
20220628152006 24 187 3.2 8.0 0.00 0.00 0.00 37 1009.9
20220628151005 23 275 1.6 9.7 0.00 0.00 0.00 39 1010.0
20220628150005 22 178 4.8 9.7 0.00 0.00 0.00 38 1010.1
20220628145005 22 190 3.2 9.7 0.00 0.00 0.00 42 1010.1
20220628144005 21 191 1.6 4.8 0.00 0.00 0.00 43 1010.2
20220628143006 21 168 4.8 14.5 0.00 0.00 0.00 43 1010.3
20220628142005 20 177 4.8 11.3 0.00 0.00 0.00 45 1010.5
20220628141005 20 176 1.6 4.8 0.00 0.00 0.00 47 1010.5
20220628140005 19 174 3.2 9.7 0.00 0.00 0.00 48 1010.6
20220628135008 18 164 3.2 11.3 0.00 0.00 0.00 49 1010.6
20220628134005 18 185 1.6 14.5 0.00 0.00 0.00 50 1010.6
20220628133006 17 167 3.2 11.3 0.00 0.00 0.00 52 1010.6
20220628132006 17 196 1.6 9.7 0.00 0.00 0.00 54 1010.6
20220628131006 16 174 3.2 9.7 0.00 0.00 0.00 56 1010.7
20220628130005 15 181 3.2 8.0 0.00 0.00 0.00 57 1010.7
20220628125005 15 153 1.6 8.0 0.00 0.00 0.00 60 1010.7
20220628124005 13 193 3.2 9.7 0.00 0.00 0.00 62 1010.8
20220628123005 13 190 3.2 8.0 0.00 0.00 0.00 65 1010.8
20220628122005 12 192 1.6 9.7 0.00 0.00 0.00 66 1010.8
20220628121004 12 190 1.6 4.8 0.00 0.00 0.00 69 1010.8
20220628120007 12 190 0.0 1.6 0.00 0.00 0.00 70 1011.0
20220628115005 11 190 1.6 3.2 0.00 0.00 0.00 70 1010.9
20220628114006 11 190 1.6 3.2 0.00 0.00 0.00 71 1010.9
20220628113005 11 190 0.0 1.6 0.00 0.00 0.00 72 1010.9
20220628112005 11 190 0.0 1.6 0.00 0.00 0.00 71 1010.9
20220628111005 12 190 0.0 0.0 0.00 0.00 0.00 69 1010.9
20220628110006 12 190 0.0 1.6 0.00 0.00 0.00 69 1011.0
20220628105006 12 190 1.6 3.2 0.00 0.00 0.00 69 1010.9
20220628104005 12 190 0.0 3.2 0.00 0.00 0.00 69 1010.8
20220628103005 12 190 0.0 4.8 0.00 0.00 0.00 69 1010.8
20220628102006 11 192 0.0 4.8 0.00 0.00 0.00 71 1010.8
20220628101005 11 167 0.0 4.8 0.00 0.00 0.00 73 1010.8
20220628100005 11 193 0.0 1.6 0.00 0.00 0.00 75 1011.0
20220628095005 11 119 0.0 0.0 0.00 0.00 0.00 75 1011.0
20220628094005 11 119 0.0 1.6 0.00 0.00 0.00 75 1011.2
20220628093005 11 119 0.0 3.2 0.00 0.00 0.00 76 1011.3
20220628092004 11 119 0.0 1.6 0.00 0.00 0.00 75 1011.5
20220628091006 11 119 0.0 0.0 0.00 0.00 0.00 75 1011.6
20220628090006 11 119 0.0 0.0 0.00 0.00 0.00 74 1011.7
20220628085006 12 119 0.0 1.6 0.00 0.00 0.00 74 1011.6
20220628084005 12 119 0.0 3.2 0.00 0.00 0.00 74 1011.6
20220628083005 12 119 0.0 1.6 0.00 0.00 0.00 73 1011.7
20220628082004 12 119 0.0 0.0 0.00 0.00 0.00 73 1011.7
20220628081005 12 119 0.0 3.2 0.00 0.00 0.00 72 1011.8
20220628080006 13 119 0.0 3.2 0.00 0.00 0.00 71 1011.8
20220628075005 13 119 0.0 3.2 0.00 0.00 0.00 68 1011.9
20220628074005 13 119 3.2 3.2 0.00 0.00 0.00 68 1012.1
20220628073005 14 172 0.0 0.0 0.00 0.00 0.00 66 1012.1
20220628072005 15 172 0.0 0.0 0.00 0.00 0.00 65 1012.3
20220628071005 15 172 0.0 1.6 0.00 0.00 0.00 64 1012.3
20220628070004 15 172 0.0 1.6 0.00 0.00 0.00 64 1012.4
20220628065004 15 172 0.0 3.2 0.00 0.00 0.00 62 1012.6
20220628064005 15 172 0.0 3.2 0.00 0.00 0.00 62 1012.8
20220628063004 15 172 0.0 4.8 0.00 0.00 0.00 62 1012.9
20220628062004 16 169 3.2 4.8 0.00 0.00 0.00 61 1012.9
20220628061004 16 24 1.6 3.2 0.00 0.00 0.00 60 1013.1
20220628060005 16 15 0.0 1.6 0.00 0.00 0.00 58 1013.3
20220628055005 16 15 0.0 3.2 0.00 0.00 0.00 57 1013.4
20220628054005 16 15 1.6 3.2 0.00 0.00 0.00 56 1013.3
20220628053005 17 15 0.0 1.6 0.00 0.00 0.00 54 1013.4
20220628052004 17 15 0.0 1.6 0.00 0.00 0.00 53 1013.6
20220628051005 18 15 0.0 1.6 0.00 0.00 0.00 51 1013.6
20220628050005 18 15 0.0 1.6 0.00 0.00 0.00 49 1013.8
20220628045005 19 15 1.6 3.2 0.00 0.00 0.00 47 1013.8
20220628044004 20 15 0.0 3.2 0.00 0.00 0.00 46 1013.6
20220628043005 20 8 3.2 11.3 0.00 0.00 0.00 44 1013.3
20220628042005 20 334 3.2 12.9 0.00 0.00 0.00 42 1013.2
20220628041004 20 330 3.2 4.8 0.00 0.00 0.00 39 1013.3
20220628040005 21 293 0.0 3.2 0.00 0.00 0.00 38 1013.0
20220628035005 21 289 0.0 1.6 0.00 0.00 0.00 36 1012.2
20220628034005 21 289 0.0 8.0 0.00 0.00 0.00 36 1012.1
20220628033005 21 301 3.2 4.8 0.00 0.00 0.00 35 1011.9
20220628032005 22 345 1.6 4.8 0.00 0.00 0.00 35 1011.9
20220628031004 22 291 1.6 11.3 0.00 0.00 0.00 33 1011.5
20220628030005 23 270 3.2 11.3 0.00 0.00 0.00 32 1011.3